Regional Weather Roundup
Issued by NWS Sterling, VA

Home | Current Version | Previous Version | Text Only | Print | Product List | Glossary Off
Versions: 1 2 3 4 5 6 7 8 9 10 11 12 13 14 15 16 17 18 19 20 21 22 23 24 25 26 27

000
ASUS41 KLWX 280410
RWRLWX

REGIONAL WEATHER ROUNDUP
NATIONAL WEATHER SERVICE BALTIMORE MD/WASHINGTON DC
1200 AM EDT SUN AUG 28 2016

Note: "FAIR" indicates few or no clouds below 12,000 feet
with no significant weather and/or obstructions to visibility.
 TC=TEMPERATURE CELSIUS

 * =Non NWS site. Station does not report precipitation (e.g. rain,
    snow, etc.), thunder, or fog.

DCZ001-MDZ009-015-VAZ040>042-051-053>054-280500-
WASHINGTON METRO

CITY           SKY/WX    TMP DP  RH WIND       PRES   REMARKS
WASHINGTON NAT CLEAR     80  67  64 SE7       30.20S
DULLES         CLEAR     72  64  76 CALM      30.20S
ANDREWS AFB    CLEAR     73  67  83 E3        30.20S
FT BELVOIR     CLEAR     69  67  93 CALM      30.19F
QUANTICO       CLEAR     78  69  73 VRB3      30.20S
COLLEGE PARK*  CLEAR     70  68  94 CALM      30.20S
LEESBURG*      CLEAR     73  72  94 CALM      30.21F
MANASSAS*      CLEAR     70  68  94 CALM      30.20S
GAITHERSBURG*  CLEAR     72  63  73 CALM      30.25S

$$

MDZ006>007-011-014-280500-
BALTIMORE METRO

CITY           SKY/WX    TMP DP  RH WIND       PRES   REMARKS
BWI AIRPORT    CLEAR     75  68  78 E6        30.20S
MD SCIENCE CTR   N/A     80  68  66 MISG      30.21S
MARTIN STATE   CLEAR     77  72  83 E6        30.22S
ANNAPOLIS      CLEAR     79  72  79 SE9       30.20S
FORT MEADE*    CLEAR    N/A N/A N/A CALM      30.23S

$$

MDZ012-015-019>023-280500-
MARYLAND EASTERN SHORE

CITY           SKY/WX    TMP DP  RH WIND       PRES   REMARKS
OCEAN CITY     CLEAR     77  73  87 NE7       30.20R
SALISBURY      CLEAR     72  71  97 E3        30.20R
BAY BRIDGE AP* CLEAR     75  70  83 E7        30.21S
CAMBRIDGE*     CLEAR     70  70 100 CALM      30.20S
EASTON*        CLEAR     73  73  98 CALM      30.25R

$$

MDZ017>025-280500-
SOUTHERN MARYLAND

CITY           SKY/WX    TMP DP  RH WIND       PRES   REMARKS
PATUXENT RIVER CLEAR     76  71  85 E12       30.20R
ST INIGOES     CLEAR     76  71  85 NE6       30.19R
LEONARDTOWN*   CLEAR     73  68  83 E3        30.22R

$$

MDZ003>005-280500-
NORTH CENTRAL MARYLAND

CITY           SKY/WX    TMP DP  RH WIND       PRES   REMARKS
FREDERICK*     CLEAR     70  70 100 CALM      30.23S
HAGERSTOWN APT CLEAR     78  66  66 SE3       30.20F

$$

MDZ501>502-280500-
WESTERN MARYLAND

CITY           SKY/WX    TMP DP  RH WIND       PRES   REMARKS
OAKLAND*       CLEAR     68  64  88 SE9       30.31R
CUMBERLAND*    CLEAR     73  70  88 CALM      30.23S

$$

VAZ025>031-280500-
SHENANDOAH VALLEY

CITY           SKY/WX    TMP DP  RH WIND       PRES   REMARKS
WINCHESTER*    CLEAR     70  64  83 CALM      30.21F
FRONT ROYAL*   FAIR      70  68  94 CALM      30.20F
LURAY*         FAIR      72  72 100 CALM      30.22F
NEW MARKET*    FAIR     N/A N/A N/A CALM      30.21F
STAUNTON*      CLEAR     69  67  94 CALM      30.25F
WAYNESBORO*    FAIR      75  65  71 E7        30.25S

$$

WVZ021-048>050-054>055-280500-
EASTERN WEST VIRGINIA PANHANDLE

CITY           SKY/WX    TMP DP  RH WIND       PRES   REMARKS
MARTINSBURG    CLEAR     74  66  76 S3        30.20S
PETERSBURG*    CLEAR     72  70  96 CALM      30.21S

$$

VAZ036>039-050-280500-
CENTRAL FOOTHILLS

CITY           SKY/WX    TMP DP  RH WIND       PRES   REMARKS
CHARLOTTESVILL CLEAR     73  69  87 N3        30.21F
CULPEPER*      CLEAR     69  69  99 CALM      30.21S
ORANGE*          N/A     70  70 100 CALM      30.23S
GORDONSVILLE*  FAIR      70  68  94 CALM      30.20F
WARRENTON*     FAIR      66  61  84 CALM      30.20S

$$

VAZ055>057-280500-
NORTH AND CENTRAL PIEDMONT

CITY           SKY/WX    TMP DP  RH WIND       PRES   REMARKS
FREDERICKSBRG* CLEAR     71  70  96 CALM      30.19S
STAFFORD*      CLEAR     67  66  97 CALM      30.24S

$$

NCZ024-NYZ072-PAZ021-071-VAZ022-071-280500-
OTHER REGIONAL OBSERVATIONS

CITY           SKY/WX    TMP DP  RH WIND       PRES   REMARKS
NEW YORK CITY  PTCLDY    76  57  51 CALM      30.25F
PHILADELPHIA   PTCLDY    74  66  76 E6        30.23S
PITTSBURGH     PTCLDY    75  68  78 CALM      30.16S
ROANOKE        CLOUDY    80  70  71 S3        30.24S
RICHMOND       CLEAR     73  65  75 NE6       30.19R
RALEIGH        MOCLDY    79  69  71 E9        30.16R

$$

ANZ530>537-280500-
MARINE OBSERVATIONS

STATION/POSITION TIME  TEMP    WIND        PRES
                       AIR SEA DIR/SP/G
                 (UTC) (F)     (DEG/KT/KT) (MB)
THOMAS PT LIGHT  0400   77 83  110/ 16/ 17 1023.7F
BALT KEY BRIDGE  0348   79     120/ 11/ 13 1022.8R
COVE POINT       0348   76     120/ 10/ 12 1023.2R
LEWISETTA        0348   80 85   90/ 15/ 17 1022.0R
SOLOMONS ISLAND  0348           80/  9/ 11   N/A
PINEY POINT      0348          110/  9/ 11   N/A

$$





USA.gov is the U.S. government's official web portal to all federal, state and local government web resources and services.